Date,TemperatureHighF,TemperatureAvgF,TemperatureLowF,DewpointHighF,DewpointAvgF,DewpointLowF,HumidityHigh,HumidityAvg,HumidityLow,PressureMaxIn,PressureMinIn,WindSpeedMaxMPH,WindSpeedAvgMPH,GustSpeedMaxMPH,PrecipitationSumIn
2013-3-1,34,29,22,27,25,21,96,84,69,30.07,29.99,13,8,0,0.00
2013-3-2,31,27,21,24,21,16,87,79,68,30.09,29.99,16,8,0,0.00
2013-3-3,26,21,13,17,15,11,90,76,64,30.18,30.07,16,11,0,0.00
2013-3-4,42,29,14,19,14,11,91,58,31,30.30,30.16,16,8,0,0.00
2013-3-5,47,36,30,40,29,18,98,78,48,30.23,29.74,19,2,0,0.00
2013-3-6,34,26,23,32,23,19,92,87,80,30.29,29.75,24,16,0,0.00
2013-3-7,30,26,20,25,22,19,95,85,77,30.47,30.28,14,9,0,0.00
2013-3-8,41,32,20,27,23,19,95,71,54,30.52,30.40,14,8,0,0.00
2013-3-9,60,41,23,30,25,19,92,56,22,30.51,30.38,12,2,0,0.00
2013-3-10,60,48,35,34,30,25,76,52,35,30.42,30.26,10,6,0,0.00
2013-3-11,52,48,46,48,42,33,96,79,53,30.28,29.95,13,6,0,0.00
2013-3-12,50,42,36,49,38,29,98,86,71,30.12,29.84,18,9,0,0.00
2013-3-13,36,31,23,29,23,13,88,72,62,30.31,30.11,19,9,0,0.00
2013-3-14,38,28,19,18,15,12,82,60,38,30.43,30.29,15,11,0,0.00
2013-3-15,57,43,30,37,28,16,77,56,38,30.36,30.03,17,9,0,0.00
2013-3-16,67,57,46,50,45,37,84,65,47,30.03,29.76,22,11,0,0.00
2013-3-17,56,47,35,49,44,34,98,92,76,30.19,29.93,9,2,0,0.00
2013-3-18,35,32,30,34,32,29,98,98,96,30.21,30.01,7,3,0,0.00
2013-3-19,49,40,31,45,26,6,99,64,24,30.18,29.99,25,11,0,0.00
2013-3-20,44,35,27,28,12,7,94,40,23,30.20,29.96,18,9,0,0.00
2013-3-21,29,22,17,28,13,9,95,69,51,30.16,29.90,18,10,0,0.00
2013-3-22,43,28,15,15,11,9,77,53,28,30.25,30.16,12,6,0,0.00
2013-3-23,46,37,30,36,27,12,93,68,42,30.21,30.05,7,2,0,0.00
2013-3-24,38,33,29,35,31,27,97,94,79,30.06,29.66,8,2,0,0.00
2013-3-25,32,29,26,30,24,20,98,84,72,29.97,29.63,21,11,0,0.00
2013-3-26,32,28,26,27,24,22,88,85,75,30.31,29.97,18,13,0,0.00
2013-3-27,33,28,25,25,21,19,90,75,62,30.42,30.30,14,10,0,0.00
2013-3-28,42,33,28,25,22,19,77,64,48,30.46,30.38,14,8,0,0.00
2013-3-29,50,39,28,28,22,19,75,54,33,30.48,30.35,15,5,0,0.00
2013-3-30,56,42,28,35,29,25,91,63,34,30.38,30.20,7,2,0,0.00
2013-3-31,54,47,42,48,42,-100,98,86,64,30.20,29.93,16,3,0,0.00